Satellite: XATCOBEO
Catalog number: 38082
Epoch time:      12236.81116666
Element set:     496
Inclination:      069.4868 deg
RA of node:       160.0099 deg
Eccentricity:    0.0716663
Arg of perigee:   162.0730 deg
Mean anomaly:     200.7179 deg
Mean motion:   14.20950886 rev/day
Decay rate:     2.9159e-04 rev/day^2
Epoch rev:            2718
Checksum:              323

/EX
SB KEPS @ AMSAT  $ORB12236.W
Orbital Elements  12236.WEATHER

HR AMSAT ORBITAL ELEMENTS FOR WEATHER SATELLITES
FROM WA5QGD FORT WORTH,TX August 23, 2012
Send SUBSCRIBE KEPS/UNSUBSCRIBE KEPS to majordomo@amsat.org only
BID: ORB12236.W
TO ALL RADIO AMATEURS BT

Satellite: NOAA-10
Catalog number: 16969
Epoch time:      12235.95538437
Element set:    0047
Inclination:      098.5771 deg
RA of node:       263.8108 deg
Eccentricity:    0.0012978
Arg of perigee:   042.0623 deg
Mean anomaly:     318.1551 deg
Mean motion:   14.27570991 rev/day
Decay rate:        5.7e-07 rev/day^2
Epoch rev:           34939
Checksum:              329

Satellite: NOAA-11
Catalog number: 19531
Epoch time:      12235.75575558
Element set:    0031
Inclination:      098.7306 deg
RA of node:       319.5093 deg
Eccentricity:    0.0011818
Arg of perigee:   036.8027 deg
Mean anomaly:     323.3954 deg
Mean motion:   14.14976599 rev/day
Decay rate:      -1.82e-06 rev/day^2
Epoch rev:           23392
Checksum:              318

Satellite: NOAA-12
Catalog number: 21263
Epoch time:      12235.93863517
Element set:    0528
Inclination:      098.7268 deg
RA of node:       257.2837 deg
Eccentricity:    0.0014254
Arg of perigee:   011.2040 deg
Mean anomaly:     348.9454 deg
Mean motion:   14.25513023 rev/day
Decay rate:        2.0e-07 rev/day^2
Epoch rev:           10606
Checksum:              274

Satellite: MET-3/5
Catalog number: 21655
Epoch time:      12236.83642450
Element set:     487
Inclination:      082.5543 deg
RA of node:       104.4039 deg
Eccentricity:    0.0014056
Arg of perigee:   149.7291 deg
Mean anomaly:     210.4646 deg
Mean motion:   13.17038201 rev/day
Decay rate:       1.32e-06 rev/day^2
Epoch rev:            1079
Checksum:              271

Satellite: MET-2/21
Catalog number: 22782
Epoch time:      12236.76747184
Element set:     507
Inclination:      082.5517 deg
RA of node:       338.8909 deg
Eccentricity:    0.0021641
Arg of perigee:   326.7129 deg
Mean anomaly:     033.2681 deg
Mean motion:   13.83688709 rev/day
Decay rate:        9.6e-07 rev/day^2
Epoch rev:           95851
Checksum:              338

Satellite: OKEAN-4
Catalog number: 23317
Epoch time:      12235.92595690
Element set:    0013
Inclination:      082.5437 deg
RA of node:       328.8071 deg
Eccentricity:    0.0022764
Arg of perigee:   128.3514 deg
Mean anomaly:     231.9752 deg
Mean motion:   14.83902877 rev/day
Decay rate:       5.67e-06 rev/day^2
Epoch rev:           96470
Checksum:              317

Satellite: NOAA-14
Catalog number: 23455
Epoch time:      12235.92130433
Element set:    0017
Inclination:      098.8256 deg
RA of node:       318.5749 deg
Eccentricity:    0.0010069
Arg of perigee:   122.4332 deg
Mean anomaly:     237.7813 deg
Mean motion:   14.13866627 rev/day
Decay rate:        3.0e-08 rev/day^2
Epoch rev:           91022
Checksum:              282

Satellite: NOAA-15
Catalog number: 25338
Epoch time:      12235.96731380
Element set:    0375
Inclination:      098.6957 deg
RA of node:       222.2662 deg
Eccentricity:    0.0009624
Arg of perigee:   276.4529 deg
Mean anomaly:     083.5560 deg
Mean motion:   14.25108618 rev/day
Decay rate:        7.4e-07 rev/day^2
Epoch rev:           74236
Checksum:              321

Satellite: RESURS
Catalog number: 25394
Epoch time:      12236.91244704
Element set:     167
Inclination:      098.3264 deg
RA of node:       221.6042 deg
Eccentricity:    0.0002397
Arg of perigee:   054.0331 deg
Mean anomaly:     306.1071 deg
Mean motion:   14.24292454 rev/day
Decay rate:       -1.1e-07 rev/day^2
Epoch rev:           73404
Checksum:              254

Satellite: FENGYUN1
Catalog number: 25730
Epoch time:      12236.92776633
Element set:     678
Inclination:      098.8498 deg
RA of node:       194.7487 deg
Eccentricity:    0.0018162
Arg of perigee:   164.5244 deg
Mean anomaly:     195.6478 deg
Mean motion:   14.09712036 rev/day
Decay rate:       3.76e-06 rev/day^2
Epoch rev:           68415
Checksum:              348

Satellite: OKEAN-0
Catalog number: 25860
Epoch time:      12235.91132474
Element set:    0716
Inclination:      097.9431 deg
RA of node:       197.2169 deg
Eccentricity:    0.0001825
Arg of perigee:   057.4495 deg
Mean anomaly:     302.6889 deg
Mean motion:   14.74270187 rev/day
Decay rate:       1.98e-06 rev/day^2
Epoch rev:           70440
Checksum:              317

Satellite: NOAA-16
Catalog number: 26536
Epoch time:      12235.89378853
Element set:    0864
Inclination:      099.0877 deg
RA of node:       279.0297 deg
Eccentricity:    0.0009810
Arg of perigee:   254.9819 deg
Mean anomaly:     105.0254 deg
Mean motion:   14.12771750 rev/day
Decay rate:       2.57e-06 rev/day^2
Epoch rev:           61445
Checksum:              339

